Regional Weather Roundup
Issued by NWS

Home | Current Version | Previous Version | Graphics & Text | Print | Product List | Glossary On
Versions: 1 2 3 4 5 6 7 8 9 10 11 12 13 14 15 16 17 18 19 20 21 22 23 24 25 26 27 28 29 30 31 32 33 34 35 36 37 38 39 40 41 42 43 44 45 46 47 48 49 50
000
ASUS43 KLMK 021202
RWRKY
KENTUCKY REGIONAL WEATHER ROUNDUP
NATIONAL WEATHER SERVICE LOUISVILLE KY
800 AM EDT WED SEP 02 2015

NOTE "FAIR" INDICATES FEW OR NO CLOUDS BELOW 12,000 FEET
WITH NO SIGNIFICANT WEATHER AND/OR OBSTRUCTIONS TO VISIBILITY.

KYZ001>023-026-027-061>063-070>075-021300-
WESTERN AND SOUTH CENTRAL KENTUCKY

CITY           SKY/WX    TMP DP  RH WIND       PRES   REMARKS
PADUCAH        PTCLDY    69  67  93 CALM      30.12R FOG
HENDERSON      CLEAR     66  63  88 CALM      30.12R
OWENSBORO      PTCLDY    69  67  93 CALM      30.14R FOG
HOPKINSVILLE   CLOUDY    68  67  94 E2        30.13R
BOWLING GREEN  MOCLDY    69  67  93 CALM      30.15R FOG
GLASGOW        NOT AVBL
$$

KYZ024-025-028>034-038-045-046-053-021300-
NORTH CENTRAL KENTUCKY

CITY           SKY/WX    TMP DP  RH WIND       PRES   REMARKS
LOUISVILLE/SDF CLEAR     72  67  84 SE3       30.13R HAZE
LOUISVILLE/LOU CLEAR     70  68  93 CALM      30.14R FOG
FORT KNOX      NOT AVBL
$$

KYZ035>037-039>044-047>052-055>060-089>105-021300-
NORTHEAST KENTUCKY

CITY           SKY/WX    TMP DP  RH WIND       PRES   REMARKS
LEXINGTON      CLEAR     67  64  90 CALM      30.16R
COVINGTON      CLEAR     66  65  96 S3        30.14R FOG
FRANKFORT      CLEAR     66  64  93 CALM      30.14R
$$

KYZ054-064>069-076>088-106>120-021300-
SOUTHEAST KENTUCKY

CITY           SKY/WX    TMP DP  RH WIND       PRES   REMARKS
JACKSON        SUNNY     68  66  93 CALM      30.18R FOG
LONDON         CLEAR     67  62  84 CALM      30.17R HAZE
SOMERSET       NOT AVBL
MIDDLESBORO    FOG       66  66 100 CALM      30.19R VSB 1
MONTICELLO     FOG       65  65 100 CALM      30.19R VSB 3/4
$$



USA.gov is the U.S. government's official web portal to all federal, state and local government web resources and services.